Location: Pinhead Observatory
(34.4473°N, 118.1985°W)
Time: 03:33:24
(UTC-07:00)

Daily predictions for brighter satellites

Satellite Brightness Start Highest point End
(mag) Time Altitude Azimuth Time Altitude Azimuth Time Altitude Azimuth
Terra 4.4 00:10:07 14° WNW 00:10:07 14° WNW 00:11:18 10° NW
Lacrosse 5 4.0 00:35:50 22° NW 00:35:50 22° NW 00:39:35 10° NNE
ATLAS 3B CENTAUR R/B 4.4 00:47:40 57° SE 00:47:40 57° SE 01:10:43 10° E
Cosmos 2369 Rocket 4.2 01:05:44 21° NW 01:05:44 21° NW 01:09:23 10° N
CZ-2C R/B 4.2 01:12:12 10° N 01:14:55 31° N 01:14:55 31° N
ATLAS 2AS CENTAUR R/B 3.2 01:26:43 10° NNW 01:33:30 66° NNW 01:33:30 66° NNW
Cosmos 1943 Rocket 4.0 01:41:39 24° NW 01:41:39 24° NW 01:44:59 10° N
CZ-3B DEB 4.4 01:48:36 10° NW 02:16:39 55° WSW 02:18:31 53° SW
SeaSat 1 3.9 02:20:46 32° NNW 02:20:46 32° NNW 02:23:23 10° NNW
Cosmos 2034 Rocket 4.5 02:34:50 51° E 02:34:55 51° E 02:40:53 10° NNE
CZ-2D R/B 4.0 02:35:43 10° NE 02:39:40 20° E 02:40:29 20° ESE
SL-16 R/B 4.2 02:41:26 12° ESE 02:46:04 28° ENE 02:51:12 10° N
Cosmos 1898 Rocket 4.0 02:42:57 10° N 02:47:47 56° NE 02:47:47 56° NE
Cosmos 1697 Rocket 3.3 02:50:22 49° E 02:50:22 49° E 02:55:27 10° NNE
Cosmos 1763 Rocket 4.1 02:57:36 49° E 02:57:36 49° E 03:02:13 10° NNE
Cosmos 2082 3.8 02:51:43 10° NNW 02:56:38 68° N 02:56:38 68° N
Cosmos 1980 Rocket 3.3 02:58:11 33° ESE 02:58:36 34° ESE 03:03:38 10° NE
Cosmos 1937 Rocket 4.1 02:54:21 10° N 02:59:24 51° ENE 02:59:50 50° E
Geosat 4.3 02:54:38 10° NNE 02:58:50 61° N 02:58:50 61° N
ATLAS CENTAUR R/B 2.5 03:00:50 51° N 03:00:50 51° N 03:04:47 10° NNE
Cosmos 2227 Rocket 2.5 03:01:52 10° NNW 03:06:27 57° NW 03:06:27 57° NW
SL-08 R/B 4.5 03:12:20 34° NW 03:12:20 34° NW 03:15:03 10° NNW
Cosmos 2322 Rocket 4.5 03:08:13 11° SE 03:10:48 15° E 03:13:52 10° ENE
ARIANE 5 R/B 2.8 03:09:57 10° NNE 03:15:03 61° E 03:15:18 60° ESE
ISS -0.5 03:14:23 17° NNE 03:15:14 18° NNE 03:17:36 10° E
Meteor 2-5 Rocket 3.8 03:12:07 10° NNW 03:17:43 66° W 03:17:43 66° W
Resurs 1-4 Rocket 2.7 03:13:48 10° NNE 03:18:53 49° E 03:19:45 44° SE
Cosmos 1464 Rocket 4.3 03:19:00 48° WNW 03:19:00 48° WNW 03:25:00 10° N
ADEOS 3.5 03:13:46 10° N 03:18:43 72° NW 03:18:43 72° NW
Okean 3 Rocket 4.4 03:15:13 10° N 03:18:16 44° NNW 03:18:16 44° NNW
ERS-1 4.4 03:14:35 10° NNE 03:19:27 83° NNE 03:19:27 83° NNE
OAO 1 4.4 03:21:00 83° NNW 03:21:07 84° N 03:26:37 10° E
Meteor 2-12 Rocket 4.3 03:23:20 67° S 03:24:14 89° E 03:30:19 10° N
Cosmos 2297 Rocket 2.0 03:23:13 10° NNW 03:28:44 70° W 03:28:44 70° W
Cosmos 1378 4.0 03:28:28 10° N 03:31:33 49° NE 03:31:33 49° NE
Cosmos 1766 4.0 03:33:18 48° N 03:33:18 48° N 03:36:14 10° N
Spot 4 Rocket 4.1 03:28:13 10° N 03:33:19 61° WNW 03:33:21 61° WNW
Cosmos 1092 Rocket 4.2 03:31:33 10° N 03:37:50 69° E 03:41:40 25° SSE
IRS-1D 3.3 03:38:22 10° N 03:43:20 76° WNW 03:43:53 67° SW
Cosmos 1076 Rocket 3.4 03:39:23 10° N 03:43:42 83° E 03:43:49 82° ESE
SL-16 R/B 3.7 03:40:48 17° SSE 03:43:59 29° ESE 03:48:47 10° NE
ERS-2 4.0 03:41:38 10° NNW 03:43:28 22° NW 03:43:28 22° NW
GPS 2-04 Rocket1 2.8 03:46:09 70° NNE 03:46:09 70° NNE 03:49:49 10° E
UNKNOWN OBJECT B 2.8 03:46:50 10° NNE 03:50:41 67° E 03:50:51 66° ESE
Milstar 3 Cent rocket 2.5 03:53:52 46° SSW 03:54:35 48° S 04:01:53 10° ESE
Cosmos 1758 3.1 03:58:13 77° SSW 03:58:29 86° W 04:02:31 10° N
EO 1 Del DPAF 3.1 03:58:07 69° SSE 03:58:32 88° E 04:02:26 10° NNW
Meteor 1-24 Rocket 4.0 03:54:03 10° NNW 03:59:36 50° W 04:00:52 43° SW
SL-24 R/B 4.5 04:01:05 50° WSW 04:01:27 51° W 04:05:58 10° NNW
Cosmos 1441 Rocket 3.2 03:58:19 10° NNW 04:02:10 64° W 04:02:10 64° W
Cosmos 1805 3.1 04:02:32 74° SSW 04:02:51 83° W 04:06:46 10° N
Cosmos 1953 2.2 04:02:41 69° WSW 04:02:58 72° W 04:07:02 10° N
Cosmos 990 Rocket 4.1 03:58:02 10° NNW 04:03:08 52° WSW 04:04:07 46° SW
Cosmos 2142 Rocket 4.4 04:00:42 33° S 04:03:39 84° W 04:09:47 10° N
Okean O Rocket 2.4 03:59:25 10° NNE 04:03:39 47° E 04:06:01 24° SSE
Cosmos-2242 3.0 04:06:47 56° WSW 04:07:22 63° W 04:11:39 10° N
CZ-4B R/B 4.0 04:04:08 10° NNE 04:09:24 46° E 04:13:57 13° S
USA 81 4.2 04:06:55 22° S 04:10:20 72° E 04:15:37 10° N
Cosmos 2279 Rocket 4.2 04:10:03 16° S 04:15:07 72° E 04:21:22 10° N
Cosmos 1408 Rocket 4.0 04:12:09 10° NNW 04:16:17 41° W 04:16:37 40° WSW
ASTRO E2 4.0 04:19:04 25° SSE 04:19:04 25° SSE 04:21:26 10° SE
Cosmos 2227 4.4 04:12:37 10° NNW 04:18:24 74° ENE 04:24:08 10° SSE
Cosmos 783 Rocket 4.4 04:16:45 32° SSW 04:19:18 83° WNW 04:24:38 10° NNE
Cosmos 1544 2.9 04:18:23 47° S 04:19:23 88° W 04:23:03 10° N
CZ-2D R/B 2.7 04:14:46 10° N 04:19:53 43° WNW 04:21:48 31° WSW
Cosmos 1766 Rocket 4.0 04:15:50 10° NNW 04:19:58 41° W 04:20:35 38° WSW
MTI 3.7 04:22:48 57° SW 04:23:13 65° W 04:26:30 10° NNW
DELTA 2 R/B (1) 4.0 04:21:25 30° SSW 04:23:49 50° SSE 04:29:12 10° ENE
IRS-1C Rocket 4.0 04:21:11 10° NNE 04:26:28 86° WNW 04:30:02 21° SSW
ADEOS II 4.1 04:23:40 10° NE 04:27:56 25° E 04:32:11 10° SSE
Cosmos 1437 2.7 04:25:58 10° NNW 04:29:17 66° W 04:30:20 39° SSW
SL-16 R/B 3.0 04:26:32 25° SSW 04:29:27 39° W 04:35:11 10° NNW
Cosmos 1697 Rocket 4.3 04:32:06 17° W 04:34:13 20° WNW 04:38:21 10° N
In-Cosmos 22 4.2 04:29:20 10° NNW 04:34:26 50° W 04:38:22 17° SSW
Cosmos 1125 Rocket 3.4 04:31:14 10° NNW 04:36:24 66° WSW 04:41:31 10° S
Cosmos 1842 Rocket 3.6 04:35:28 25° SSW 04:37:57 60° W 04:42:24 10° N
GEOS 3 Rocket 3.6 04:32:48 10° SSE 04:37:57 61° WSW 04:43:06 10° NW
Cosmos 332 Rocket 4.0 04:37:02 26° SW 04:39:28 53° WNW 04:44:12 10° N
Meteor 1-21 Rocket 4.4 04:34:29 10° NNW 04:40:18 59° W 04:46:05 10° S
Cosmos 1655 Rocket 4.0 04:35:09 10° N 04:41:32 71° W 04:47:52 10° S
Cosmos 1674 2.6 04:38:16 10° N 04:42:03 83° E 04:45:47 10° S
RESURS DK-1 2.8 04:38:15 10° NNW 04:42:22 63° ENE 04:46:27 10° SSE
Cosmos 1980 Rocket 3.3 04:39:58 20° W 04:42:33 28° WNW 04:47:23 10° N
Cosmos 2360 Rocket 3.6 04:38:03 10° SSE 04:43:05 35° ESE 04:48:09 10° NE
ADEOS Rocket 4.4 04:38:10 10° NNE 04:44:32 43° E 04:51:26 10° S
Aureole 1 Rocket 4.1 04:42:42 20° SSW 04:46:47 65° WNW 04:54:03 10° NNE
CZ-2D R/B 4.5 04:44:22 10° N 04:48:17 33° WNW 04:50:26 21° WSW
NOSS 3-4 (A) 4.5 04:42:13 10° NW 04:48:22 32° WSW 04:54:48 10° S
NOSS 3-4 (C) 4.5 04:42:19 10° NW 04:48:31 32° WSW 04:55:00 10° S
Okean-O 3.6 04:44:44 10° NNE 04:49:02 48° E 04:53:18 10° S
CZ-4B DEB 4.2 04:44:53 10° N 04:50:26 79° WNW 04:55:55 10° SSW
ISS -2.9 04:48:43 10° WNW 04:51:47 39° SW 04:54:50 10° SSE
ARIANE 5 R/B 4.4 04:50:59 10° NNW 04:53:38 14° WNW 04:55:38 12° W
Cosmos 2322 Rocket 2.3 04:50:04 18° SW 04:54:15 59° WNW 04:59:48 10° NNE
Cosmos 1461 2.7 04:52:42 10° NNW 04:56:47 88° WSW 05:00:43 10° SSE
Resurs 1-4 Rocket 3.7 04:54:53 10° NNW 04:58:17 18° WNW 05:00:50 13° W
Cosmos 371 Rocket 3.6 04:55:37 17° SW 04:59:08 50° WNW 05:03:50 10° N
Cosmos 1470 3.3 04:57:07 18° SW 04:59:40 39° W 05:03:25 10° N
Cosmos 2026 Rocket 4.4 04:57:52 10° NNW 05:03:44 42° W 05:09:30 10° SSW
CZ-3 R/B 3.3 04:40:29 15° WSW 05:05:13 58° S 05:12:09 10° E
Thor Agena Rocket 3.6 05:10:14 10° S 05:15:09 56° WSW 05:20:07 10° NNW
USA 116 3.7 05:13:22 10° SSE 05:16:28 63° ENE 05:19:47 10° N
CZ-4B R/B 3.7 05:13:22 10° N 05:16:48 31° WNW 05:20:06 10° SW
Cosmos 2151 3.1 05:14:31 10° NNW 05:18:46 57° W 05:22:58 10° S
Meteor 2-20 4.5 05:15:25 10° NNW 05:21:25 64° W 05:27:26 10° S
Cosmos 1346 3.7 05:21:10 10° N 05:24:10 61° E 05:27:09 10° SSE
GPS 2-04 Rocket1 2.6 05:21:57 10° W 05:25:53 68° SSW 05:29:35 10° ESE
Abrixas 2.5 05:24:41 10° WNW 05:27:43 57° SW 05:30:44 10° SE
SL-16 R/B 3.1 05:22:53 10° SW 05:27:55 33° WNW 05:33:00 10° N
CSL-04 DEB 4.4 05:25:54 10° N 05:29:47 61° WNW 05:33:41 10° SSW
Cosmos 923 Rocket 4.1 05:26:53 10° SSW 05:32:06 90° WNW 05:37:20 10° NNE
Meteor 1-31 Rocket 3.1 05:30:35 10° NNE 05:34:27 70° E 05:38:18 10° S
Cosmos 2228 Rocket 3.5 05:31:02 10° S 05:35:27 68° E 05:39:57 10° NNE
COSMOS 2428 3.8 05:30:10 10° S 05:35:32 47° ESE 05:40:56 10° NE
